{"data":{"norad_id":58037,"intl_designator":"2023-156K","name":"STARLINK-30533","alt_names":[],"object_type":"PAYLOAD","status":"ACTIVE","operator":null,"country":"US","launch_date":"2023-10-09","launch_site_code":"AFWTR","launch_vehicle":null,"mission":null,"orbit_class":"UNKNOWN","rcs_meters":null,"size_class":null,"mass_kg":null,"dimensions":null,"purposes":["comms"],"wikipedia_slug":null,"has_3d_model":false,"image_url":null,"decayed_at":null,"tle_current":{"epoch":"2026-09-20T12:54:04.617216Z","epoch_age_seconds":134791,"freshness":"FRESH","line1":"1 58037U 23156K   26263.53755344  .00027015  00000+0  80837-3 0  9998","line2":"2 58037  53.1612 339.6625 0000996  87.9355 272.1762 15.34377980164913","mean_motion":15.3437798,"eccentricity":9.96e-5,"inclination_deg":53.1612,"raan_deg":339.6625,"arg_perigee_deg":87.9355,"mean_anomaly_deg":272.1762,"bstar":0.00080837,"rev_number":16491,"period_min":93.849104899172,"perigee_km":462.08733486369,"apogee_km":463.45004327695,"semimajor_km":6840.9056890703,"source":"CELESTRAK","updated_at":"2026-09-21T09:00:33.759764Z"}}}